[[{"header":{"parameterUnit":"m.s-1","parameterCategory":1,"la1":30.2991,"la2":30.254,"lo1":-89.0895,"lo2":-89.0444,"dy":0.0017,"dx":0.0017,"nx":28,"ny":28,"refTime":"2026-01-01T09:00:00:Z","depth":0,"parameterNumber":2,"parameterNumberName":"U-component_of_WINDS"},"data":[0,0,0,0,0,0,0,0,0,0,0,0,0,0,0,0,0,0,0,0,0,0,0,0,0,0,0,0,0,0,0,0,0,0,0,0,0,0,0,0,0,0,0,0,0,0,0,0,0,0,0,0,0,0,0,0,0,0,3.4977,3.4979,0,3.5106,3.5107,3.5109,3.5088,3.5086,3.5084,3.5082,3.5219,3.5225,3.523,0,0,0,0,0,0,0,0,0,0,0,0,0,3.4722,3.4726,3.4977,3.4979,3.498,3.5105,3.5107,3.5109,3.5089,3.5086,3.5083,3.5081,3.5217,3.5224,3.5231,0,0,0,0,0,0,0,0,0,0,0,0,0,3.484,3.4728,3.4977,3.4985,3.4987,3.5105,3.5107,3.5109,3.5089,3.5086,3.5083,3.508,3.5215,3.5223,3.5232,3.5351,0,0,3.5258,3.5262,0,0,0,0,0,0,0,0,3.4833,3.4849,3.4982,3.4985,3.4987,3.5077,3.5067,3.5191,3.509,3.5051,3.5082,3.5078,3.5175,3.5187,3.5218,3.5358,3.5364,3.5259,3.5264,3.5268,3.527,0,0,0,0,0,0,0,3.4825,3.4844,3.5028,3.4984,3.4987,3.4985,3.4998,3.5091,3.513,3.5054,3.5053,3.5068,3.5176,3.521,3.5221,3.5366,3.5259,3.5266,3.5272,3.5275,3.5612,3.5616,0,0,0,0,0,0,3.4813,3.4837,3.5024,3.5032,3.49,3.4992,3.5007,3.5052,3.5129,3.5137,3.5071,3.5067,3.5197,3.5211,3.5226,3.5372,3.5268,3.5276,3.5281,3.5608,3.5613,3.5617,0,0,0,0,0,0,3.4808,3.483,3.5019,3.4934,3.4958,3.5,3.5051,3.5056,3.509,3.5142,3.5149,3.5098,3.5195,3.5214,3.532,3.5377,3.528,3.5287,3.5604,3.561,3.5615,3.5665,0,0,0,0,0,0,3.4801,3.4828,3.4872,3.4935,3.4962,3.5109,3.5054,3.5061,3.5104,3.51,3.5169,3.5177,3.5194,3.5308,3.5329,3.5387,3.5294,3.5599,3.5607,3.5613,3.5658,3.5671,3.5683,0,0,0,0,0,3.4792,3.4882,3.4875,3.4897,3.5018,3.5112,3.5128,3.5143,3.5109,3.5155,3.5188,3.5175,3.5367,3.5319,3.5343,3.5404,3.5596,3.5604,3.5613,3.5653,3.5669,3.5682,0,0,0,0,0,0,3.4826,3.489,3.4883,3.4995,3.5048,3.5108,3.5166,3.516,3.5225,3.5218,3.5236,3.5252,3.536,3.5393,3.5338,3.5525,3.5477,3.5491,3.5499,3.5515,3.5527,3.5517,3.5301,0,0,0,0,0,3.4846,3.4915,3.4969,3.5063,3.509,3.5124,3.5165,3.5173,3.5229,3.5252,3.5293,3.535,3.5423,3.5471,3.5541,3.5663,3.5679,3.5717,3.5729,3.5739,3.5751,3.582,3.5838,3.5645,3.5645,3.5645,0,0,3.4889,3.4933,3.4976,3.5071,3.5113,3.5186,3.5143,3.5222,3.5277,3.5264,3.5367,3.5399,3.5464,3.558,3.5632,3.561,3.5808,3.575,3.5758,3.5764,3.5831,3.5849,3.5865,3.5651,3.565,3.5649,0,0,3.5006,3.5045,3.5129,3.5172,3.5235,3.5257,3.5278,3.534,3.536,3.5463,3.5456,3.5523,3.5649,3.5696,3.5736,3.5873,3.5864,3.5896,3.596,3.6027,3.6042,3.6056,3.6106,3.6123,3.5907,3.5907,3.5908,0,3.5052,3.516,3.5173,3.5254,3.5297,3.5288,3.5374,3.5416,3.55,3.5531,3.5505,3.5663,3.5706,3.5833,3.5866,3.5899,3.5925,3.5888,3.6038,3.6052,3.6065,3.6113,3.6132,3.5911,3.591,3.591,3.591,0,3.5214,3.529,3.535,3.543,3.5481,3.5564,3.5592,3.5642,3.5646,3.5672,3.5779,3.583,3.5911,3.5942,3.5947,3.6071,3.6055,3.6034,3.5986,3.6087,3.6132,3.6151,3.5916,3.5915,3.5914,3.5913,0,0,3.5354,3.5441,3.5464,3.5501,3.5571,3.5631,3.5715,3.5793,3.5837,3.5896,3.5968,3.6076,3.6056,3.6102,3.6113,3.6172,3.6279,3.6143,3.6145,3.6167,3.6421,3.6437,3.6458,3.6274,3.6277,3.628,3.6416,0,3.5478,3.5624,3.5639,3.5771,3.5842,3.5836,3.591,3.5963,3.599,3.6057,3.6088,3.6164,3.6132,3.616,3.6218,3.6254,3.633,3.6244,3.6344,3.6347,3.6327,3.6481,3.6498,3.6623,3.6434,3.6437,3.6439,0,3.5641,3.5703,3.5842,3.5904,3.5935,3.6,3.6074,3.6137,3.6198,3.6214,3.6267,3.627,3.636,3.6309,3.6434,3.6375,3.6418,3.6442,3.6447,3.6457,3.6399,3.6496,3.6663,3.6682,3.6467,3.6465,3.6463,0,3.573,3.5849,3.5948,3.598,3.6055,3.6101,3.6135,3.6193,3.624,3.6305,3.6336,3.6412,3.6454,3.6514,3.6539,3.6499,3.6664,3.6615,3.6681,3.6681,3.6716,3.6713,3.6893,3.6743,3.6743,3.6742,3.6742,0,3.5866,3.5951,3.5989,3.6049,3.6146,3.6165,3.626,3.6293,3.6344,3.6413,3.6414,3.6479,3.6507,3.6578,3.6599,3.67,3.6719,3.6736,3.6741,3.6736,3.6734,3.6764,3.6756,3.6747,3.6746,3.6745,3.6744,0,3.5981,3.601,3.6117,3.618,3.6198,3.6266,3.6321,3.6381,3.6408,3.6496,3.6517,3.6561,3.6644,3.6675,3.6777,3.6791,3.6909,3.6906,3.6887,3.6889,3.6954,3.6947,3.7159,3.7188,3.7018,3.702,3.7021,0,3.6066,3.6131,3.6201,3.6247,3.6282,3.6355,3.6403,3.6425,3.6475,3.6551,3.6603,3.6685,3.6752,3.6886,3.6928,3.7006,3.7006,3.7075,3.7018,3.7012,3.7008,3.7004,3.7011,3.7085,3.7087,3.7088,3.7089,0,3.6214,3.6226,3.6293,3.6367,3.6423,3.6482,3.654,3.6578,3.661,3.6666,3.6751,3.6803,3.6906,3.6989,3.707,3.7108,3.7105,3.7107,3.7127,3.7123,3.711,3.7118,3.6917,3.7102,3.7101,3.71,3.7099,3.7099,3.6317,3.6376,3.6434,3.651,3.6556,3.6611,3.6671,3.6705,3.6775,3.686,3.687,3.6962,3.7024,3.7132,3.7174,3.7247,3.7229,3.7257,3.7264,3.7271,3.7276,3.7098,3.7262,3.7262,3.7261,3.7261,3.7261,0,3.6466,3.6504,3.6573,3.6654,3.6715,3.6705,3.677,3.6821,3.6901,3.6958,3.7025,3.7123,3.7204,3.7253,3.7335,3.7384,3.7385,3.7405,3.7402,3.7411,3.7287,3.7262,3.7403,3.7403,3.7403,3.7403,3.7403,3.7403,3.655,3.6649,3.6668,3.6791,3.6828,3.6916,3.6954,3.7005,3.7051,3.716,3.7227,3.7258,3.7313,3.7399,3.7474,3.7487,3.7517,3.7539,3.755,3.7434,3.7419,3.7405,3.7382,3.7545,3.7545,3.7668,3.7669,3.7669]},{"header":{"parameterUnit":"m.s-1","parameterCategory":1,"la1":30.2991,"la2":30.254,"lo1":-89.0895,"lo2":-89.0444,"dy":0.0017,"dx":0.0017,"nx":28,"ny":28,"refTime":"2026-01-01T09:00:00:Z","depth":0,"parameterNumber":3,"parameterNumberName":"V-component_of_WINDS"},"data":[0,0,0,0,0,0,0,0,0,0,0,0,0,0,0,0,0,0,0,0,0,0,0,0,0,0,0,0,0,0,0,0,0,0,0,0,0,0,0,0,0,0,0,0,0,0,0,0,0,0,0,0,0,0,0,0,0,0,2.1033,2.1034,0,2.1073,2.1073,2.1074,2.1088,2.1088,2.1088,2.1087,2.1125,2.1126,2.1127,0,0,0,0,0,0,0,0,0,0,0,0,0,2.0966,2.0967,2.1033,2.1034,2.1034,2.1073,2.1073,2.1074,2.1088,2.1088,2.1088,2.1087,2.1125,2.1126,2.1127,0,0,0,0,0,0,0,0,0,0,0,0,0,2.0999,2.0967,2.1033,2.1046,2.1048,2.1073,2.1074,2.1074,2.1088,2.1088,2.1088,2.1087,2.1124,2.1126,2.1128,2.1142,0,0,2.1133,2.1133,0,0,0,0,0,0,0,0,2.0997,2.1002,2.1044,2.1045,2.1047,2.1075,2.1063,2.1097,2.1088,2.1073,2.1087,2.1087,2.1108,2.1111,2.1119,2.1144,2.1146,2.1133,2.1134,2.1135,2.1135,0,0,0,0,0,0,0,2.0995,2.1,2.1049,2.1044,2.1046,2.1048,2.1053,2.107,2.1091,2.1074,2.1075,2.108,2.1109,2.1118,2.112,2.1146,2.1133,2.1134,2.1135,2.1136,2.1183,2.1183,0,0,0,0,0,0,2.0991,2.0998,2.1048,2.105,2.1021,2.105,2.1055,2.1066,2.1091,2.1095,2.108,2.108,2.1115,2.1118,2.1122,2.114,2.1135,2.1136,2.1137,2.1183,2.1183,2.1183,0,0,0,0,0,0,2.099,2.0995,2.1046,2.1024,2.1031,2.1051,2.1064,2.1067,2.1076,2.1095,2.1099,2.1085,2.1115,2.1119,2.1137,2.1141,2.1137,2.1139,2.1183,2.1183,2.1183,2.1176,0,0,0,0,0,0,2.0988,2.0995,2.1002,2.1025,2.1032,2.1062,2.1064,2.1068,2.1079,2.108,2.1101,2.1104,2.1115,2.1134,2.1139,2.1143,2.114,2.1182,2.1183,2.1183,2.1176,2.1176,2.1176,0,0,0,0,0,2.0985,2.0998,2.1002,2.1008,2.1041,2.1062,2.1066,2.1079,2.1079,2.1085,2.1098,2.1104,2.114,2.1136,2.1141,2.1146,2.1182,2.1183,2.1183,2.1176,2.1176,2.1176,0,0,0,0,0,0,2.0974,2.1001,2.1006,2.1027,2.1042,2.1065,2.1073,2.1079,2.1095,2.1095,2.1109,2.1114,2.113,2.114,2.1135,2.1161,2.1161,2.1163,2.1154,2.1154,2.1155,2.1152,2.1141,0,0,0,0,0,2.0974,2.099,2.1012,2.1028,2.1036,2.1053,2.1062,2.1071,2.1087,2.1094,2.1107,2.1122,2.1137,2.1146,2.1161,2.1177,2.1182,2.1183,2.1183,2.1183,2.1185,2.1193,2.1194,2.1185,2.1185,2.1185,0,0,2.0974,2.0991,2.1,2.1026,2.1039,2.1054,2.1058,2.1074,2.1085,2.1096,2.1113,2.1124,2.1141,2.1158,2.1166,2.1167,2.1188,2.1184,2.1184,2.1185,2.1194,2.1194,2.1195,2.1185,2.1185,2.1185,0,0,2.0982,2.0996,2.1011,2.1024,2.1044,2.1055,2.1058,2.108,2.1087,2.1105,2.1113,2.1125,2.1151,2.1162,2.1171,2.1182,2.1187,2.1186,2.1187,2.1195,2.1195,2.1196,2.1199,2.12,2.1187,2.1187,2.1187,0,2.0979,2.1003,2.1017,2.1032,2.1043,2.1054,2.1068,2.1079,2.1103,2.1109,2.111,2.1141,2.1153,2.1172,2.1175,2.1182,2.1185,2.1184,2.1194,2.1195,2.1196,2.1199,2.12,2.1187,2.1187,2.1187,2.1187,0,2.0998,2.1014,2.1023,2.1046,2.1058,2.1072,2.1087,2.1097,2.1104,2.1115,2.1132,2.1147,2.1165,2.117,2.1177,2.1189,2.1189,2.1192,2.1192,2.1196,2.1199,2.1201,2.1186,2.1186,2.1187,2.1187,0,0,2.1001,2.1031,2.1034,2.1044,2.1066,2.1078,2.1092,2.111,2.1117,2.1132,2.1144,2.1164,2.1167,2.1177,2.1185,2.1192,2.1198,2.1194,2.1194,2.1194,2.1212,2.121,2.1211,2.1202,2.1202,2.1202,2.1211,0,2.1011,2.1038,2.1051,2.1072,2.1086,2.1096,2.1108,2.1122,2.1132,2.1144,2.1155,2.1169,2.1171,2.1177,2.1185,2.1196,2.1202,2.1195,2.1211,2.1212,2.1207,2.1213,2.1211,2.1219,2.1212,2.1212,2.1212,0,2.1027,2.1043,2.1066,2.1085,2.1091,2.1102,2.1119,2.1131,2.1146,2.1153,2.1164,2.1171,2.1185,2.1184,2.1203,2.1198,2.1205,2.1211,2.1211,2.1213,2.1213,2.1215,2.1221,2.1222,2.1215,2.1214,2.1214,0,2.1026,2.1053,2.107,2.1078,2.1101,2.1108,2.1118,2.1133,2.1143,2.1157,2.1163,2.1177,2.1186,2.1196,2.1207,2.1206,2.1224,2.1224,2.1229,2.1229,2.1233,2.1232,2.124,2.1237,2.1237,2.1237,2.1237,0,2.1036,2.105,2.1069,2.108,2.1094,2.1108,2.1121,2.1131,2.1145,2.1156,2.1165,2.1175,2.1189,2.12,2.1209,2.1222,2.1226,2.1231,2.1233,2.123,2.1229,2.1235,2.1234,2.1237,2.1237,2.1237,2.1237,0,2.1038,2.1052,2.1071,2.1091,2.1096,2.1106,2.1123,2.1132,2.1142,2.1156,2.116,2.1176,2.1189,2.1201,2.1219,2.1225,2.1238,2.1241,2.1234,2.1235,2.1239,2.1238,2.125,2.1252,2.1248,2.1248,2.1248,0,2.1044,2.1054,2.1075,2.1084,2.1094,2.1108,2.1118,2.113,2.114,2.1158,2.1165,2.1179,2.1192,2.1213,2.1225,2.1239,2.1241,2.1245,2.1243,2.124,2.1241,2.124,2.1241,2.1245,2.1245,2.1245,2.1245,0,2.1052,2.1058,2.1072,2.1089,2.11,2.1113,2.1127,2.1133,2.1148,2.1158,2.1173,2.1182,2.1201,2.1215,2.1229,2.1238,2.1243,2.1245,2.1247,2.1244,2.1239,2.1241,2.1234,2.1245,2.1245,2.1245,2.1245,2.1245,2.1056,2.1065,2.1081,2.1096,2.1108,2.112,2.113,2.1141,2.1154,2.117,2.1177,2.1191,2.1205,2.1225,2.1234,2.1245,2.1245,2.1248,2.1249,2.1249,2.1249,2.1237,2.1247,2.1247,2.1247,2.1247,2.1247,0,2.1064,2.1075,2.1089,2.1107,2.1119,2.1124,2.1138,2.1147,2.116,2.1173,2.1185,2.1201,2.1215,2.1227,2.1241,2.1247,2.125,2.125,2.125,2.1252,2.1247,2.1244,2.1248,2.1248,2.1248,2.1248,2.1248,2.1248,2.107,2.1086,2.1093,2.1114,2.1125,2.114,2.1148,2.1159,2.1169,2.1187,2.1198,2.1207,2.1219,2.1233,2.1245,2.1249,2.1253,2.1253,2.1256,2.1252,2.1252,2.1252,2.1249,2.1254,2.1254,2.126,2.126,2.126]}]]